,,PA_Meas_PMT16A,,PR_Meas_QMR101_102,,RH_Meas_QMH101,,SR_Meas_QMS101,,TA_Meas_QMH101,,GenWind,,GenWind,
time,status,PA,status,PR,status,RH,status,SR,status,TA,status,DirAvg,status,SpdAvg,
2010-05-12, 00:00:05,VALID,915.596,VALID,0,VALID,97.1833,VALID,0,VALID,21.7103,VALID,236,VALID,0.657031,
2010-05-12, 00:01:05,VALID,915.608,VALID,0,VALID,97.1833,VALID,0,VALID,21.6908,VALID,236,VALID,0.432813,
2010-05-12, 00:02:05,VALID,915.612,VALID,0,VALID,97.1909,VALID,0,VALID,21.6501,VALID,236,VALID,0.242188,
2010-05-12, 00:03:05,VALID,915.625,VALID,0,VALID,97.229,VALID,0,VALID,21.6891,VALID,236,VALID,0.128906,
2010-05-12, 00:04:05,VALID,915.624,VALID,0,VALID,97.2062,VALID,0,VALID,21.7103,VALID,236,VALID,0.235938,
2010-05-12, 00:05:05,VALID,915.644,VALID,0,VALID,97.1986,VALID,0.107441,VALID,21.6891,VALID,236,VALID,0,
2010-05-12, 00:06:04,VALID,915.614,VALID,0,VALID,97.2062,VALID,0,VALID,21.7087,VALID,236,VALID,0,
2010-05-12, 00:07:05,VALID,915.581,VALID,0,VALID,97.1986,VALID,0,VALID,21.7103,VALID,236,VALID,0,
2010-05-12, 00:08:05,VALID,915.57,VALID,0,VALID,97.2214,VALID,0,VALID,21.751,VALID,236,VALID,0.442578,
2010-05-12, 00:09:05,VALID,915.55,VALID,0,VALID,97.2062,VALID,0,VALID,21.6908,VALID,236,VALID,0.315234,
2010-05-12, 00:10:05,VALID,915.537,VALID,0,VALID,97.2062,VALID,0,VALID,21.6713,VALID,236,VALID,0.426562,
2010-05-12, 00:11:05,VALID,915.555,VALID,0,VALID,97.1986,VALID,0,VALID,21.751,VALID,236,VALID,0.219531,
2010-05-12, 00:12:05,VALID,915.547,VALID,0,VALID,97.2062,VALID,0,VALID,21.7493,VALID,236,VALID,0.255469,
2010-05-12, 00:13:05,VALID,915.539,VALID,0,VALID,97.2138,VALID,0,VALID,21.7298,VALID,236,VALID,0.282813,
2010-05-12, 00:14:05,VALID,915.545,VALID,0,VALID,97.1986,VALID,0,VALID,21.7315,VALID,236,VALID,0.419922,
2010-05-12, 00:15:05,VALID,915.528,VALID,0,VALID,97.2062,VALID,0,VALID,21.751,VALID,236,VALID,0.822656,
2010-05-12, 00:16:05,VALID,915.576,VALID,0,VALID,97.1909,VALID,0,VALID,21.7103,VALID,236,VALID,0.889844,
2010-05-12, 00:17:05,VALID,915.559,VALID,0,VALID,97.2138,VALID,0,VALID,21.7315,VALID,236,VALID,0.587109,
2010-05-12, 00:18:05,VALID,915.547,VALID,0,VALID,97.1986,VALID,0,VALID,21.7705,VALID,236,VALID,0.519141,
2010-05-12, 00:19:05,VALID,915.553,VALID,0,VALID,97.2062,VALID,0,VALID,21.7298,VALID,236,VALID,0.367578,
2010-05-12, 00:20:05,VALID,915.561,VALID,0,VALID,97.1833,VALID,0,VALID,21.7103,VALID,236,VALID,0.583984,
2010-05-12, 00:21:05,VALID,915.548,VALID,0,VALID,97.2062,VALID,0,VALID,21.6908,VALID,236,VALID,0.514453,
2010-05-12, 00:22:05,VALID,915.543,VALID,0,VALID,97.1909,VALID,0,VALID,21.712,VALID,236,VALID,0.190234,
2010-05-12, 00:23:05,VALID,915.546,VALID,0,VALID,97.1909,VALID,0,VALID,21.6908,VALID,236,VALID,0,
2010-05-12, 00:24:05,VALID,915.531,VALID,0,VALID,97.1986,VALID,0,VALID,21.6908,VALID,236,VALID,0.375,
2010-05-12, 00:25:05,VALID,915.515,VALID,0,VALID,97.2138,VALID,0,VALID,21.7103,VALID,236,VALID,0.605859,
2010-05-12, 00:26:05,VALID,915.523,VALID,0,VALID,97.1986,VALID,0,VALID,21.7103,VALID,236,VALID,0.410547,
2010-05-12, 00:27:05,VALID,915.471,VALID,0,VALID,97.2062,VALID,0,VALID,21.7688,VALID,236,VALID,0.548437,
2010-05-12, 00:28:05,VALID,915.507,VALID,0,VALID,97.2062,VALID,0,VALID,21.8079,VALID,236,VALID,0.431641,
2010-05-12, 00:29:05,VALID,915.445,VALID,0,VALID,97.2214,VALID,0,VALID,21.8274,VALID,236,VALID,0.488672,
2010-05-12, 00:30:05,VALID,915.421,VALID,0,VALID,97.1986,VALID,0,VALID,21.7883,VALID,236,VALID,0.379687,
2010-05-12, 00:31:05,VALID,915.436,VALID,0,VALID,97.2138,VALID,0,VALID,21.7688,VALID,236,VALID,0.466406,
2010-05-12, 00:32:05,VALID,915.393,VALID,0,VALID,97.1909,VALID,0,VALID,21.751,VALID,26,VALID,0.716406,
2010-05-12, 00:33:05,VALID,915.404,VALID,0,VALID,97.2138,VALID,0,VALID,21.7688,VALID,26,VALID,0.339453,
2010-05-12, 00:34:05,VALID,915.379,VALID,0,VALID,97.2138,VALID,0,VALID,21.7688,VALID,26,VALID,0.101953,
2010-05-12, 00:35:05,VALID,915.394,VALID,0,VALID,97.2062,VALID,0,VALID,21.8095,VALID,26,VALID,0.2,
2010-05-12, 00:36:05,VALID,915.383,VALID,0,VALID,97.2138,VALID,0,VALID,21.8079,VALID,26,VALID,0.135937,
2010-05-12, 00:37:05,VALID,915.393,VALID,0,VALID,97.2214,VALID,0,VALID,21.829,VALID,26,VALID,0.458203,
2010-05-12, 00:38:05,VALID,915.377,VALID,0,VALID,97.2062,VALID,0,VALID,21.8485,VALID,26,VALID,0.0664063,
2010-05-12, 00:39:05,VALID,915.383,VALID,0,VALID,97.1986,VALID,0,VALID,21.8079,VALID,26,VALID,0,
2010-05-12, 00:40:05,VALID,915.352,VALID,0,VALID,97.2138,VALID,0,VALID,21.8485,VALID,26,VALID,0.332031,
2010-05-12, 00:41:05,VALID,915.351,VALID,0,VALID,97.2138,VALID,0,VALID,21.8079,VALID,26,VALID,0.493359,
2010-05-12, 00:42:05,VALID,915.306,VALID,0,VALID,97.1986,VALID,0,VALID,21.829,VALID,26,VALID,0.626172,
2010-05-12, 00:43:05,VALID,915.304,VALID,0,VALID,97.2138,VALID,0,VALID,21.829,VALID,26,VALID,0.35,
2010-05-12, 00:44:05,VALID,915.31,VALID,0,VALID,97.2062,VALID,0,VALID,21.8274,VALID,26,VALID,0.595703,
2010-05-12, 00:45:05,VALID,915.275,VALID,0,VALID,97.1909,VALID,0,VALID,21.7705,VALID,26,VALID,0.616406,
2010-05-12, 00:46:05,VALID,915.276,VALID,0,VALID,97.2138,VALID,0,VALID,21.7493,VALID,26,VALID,0.447266,
2010-05-12, 00:47:05,VALID,915.244,VALID,0,VALID,97.1757,VALID,0,VALID,21.7103,VALID,26,VALID,0.267969,
2010-05-12, 00:48:05,VALID,915.278,VALID,0,VALID,97.1909,VALID,0,VALID,21.6908,VALID,26,VALID,0.380859,
2010-05-12, 00:49:05,VALID,915.255,VALID,0,VALID,97.1986,VALID,0,VALID,21.6713,VALID,26,VALID,0.0347656,
2010-05-12, 00:50:05,VALID,915.244,VALID,0,VALID,97.1986,VALID,0,VALID,21.6518,VALID,26,VALID,0.289844,
2010-05-12, 00:51:05,VALID,915.222,VALID,0,VALID,97.1986,VALID,0,VALID,21.6323,VALID,26,VALID,0.458203,
2010-05-12, 00:52:05,VALID,915.21,VALID,0,VALID,97.2138,VALID,0,VALID,21.6339,VALID,26,VALID,0.333594,
2010-05-12, 00:53:05,VALID,915.188,VALID,0,VALID,97.2214,VALID,0,VALID,21.5932,VALID,26,VALID,0.00742187,
2010-05-12, 00:54:05,VALID,915.167,VALID,0,VALID,97.2062,VALID,0,VALID,21.6534,VALID,26,VALID,0.185547,
2010-05-12, 00:55:05,VALID,915.151,VALID,0,VALID,97.2062,VALID,0,VALID,21.6534,VALID,25,VALID,0.566797,
2010-05-12, 00:56:05,VALID,915.158,VALID,0,VALID,97.2214,VALID,0,VALID,21.6534,VALID,26,VALID,0.447266,
2010-05-12, 00:57:05,VALID,915.126,VALID,0,VALID,97.2138,VALID,0,VALID,21.6729,VALID,26,VALID,0.432813,
2010-05-12, 00:58:05,VALID,915.128,VALID,0,VALID,97.2138,VALID,0,VALID,21.712,VALID,26,VALID,0.739453,
2010-05-12, 00:59:05,VALID,915.111,VALID,0,VALID,97.229,VALID,0,VALID,21.6339,VALID,26,VALID,0.650781,
2010-05-12, 01:00:05,VALID,915.041,VALID,0,VALID,97.229,VALID,0,VALID,21.6144,VALID,26,VALID,0.458203,
2010-05-12, 01:01:05,VALID,915.036,VALID,0,VALID,97.2214,VALID,0,VALID,21.6339,VALID,26,VALID,0.512891,
2010-05-12, 01:02:05,VALID,915.032,VALID,0,VALID,97.2138,VALID,0,VALID,21.6128,VALID,26,VALID,0.539453,
2010-05-12, 01:03:05,VALID,914.993,VALID,0,VALID,97.2367,VALID,0,VALID,21.5932,VALID,26,VALID,0.635156,
2010-05-12, 01:04:05,VALID,914.972,VALID,0,VALID,97.229,VALID,0,VALID,21.6339,VALID,26,VALID,0.778516,
2010-05-12, 01:05:05,VALID,914.979,VALID,0,VALID,97.229,VALID,0,VALID,21.5737,VALID,26,VALID,0.796094,
2010-05-12, 01:06:05,VALID,914.928,VALID,0,VALID,97.2214,VALID,0,VALID,21.5949,VALID,26,VALID,0.744141,
2010-05-12, 01:07:05,VALID,914.918,VALID,0,VALID,97.229,VALID,0,VALID,21.5932,VALID,26,VALID,1.00352,
2010-05-12, 01:08:05,VALID,914.882,VALID,0,VALID,97.2367,VALID,0,VALID,21.5737,VALID,26,VALID,0.702344,
2010-05-12, 01:09:05,VALID,914.869,VALID,0,VALID,97.229,VALID,0,VALID,21.5737,VALID,26,VALID,0.769922,
2010-05-12, 01:10:05,VALID,914.819,VALID,0,VALID,97.229,VALID,0,VALID,21.6128,VALID,26,VALID,0.430859,
2010-05-12, 01:11:05,VALID,914.776,VALID,0,VALID,97.2062,VALID,0,VALID,21.6339,VALID,26,VALID,0.5625,
2010-05-12, 01:12:05,VALID,914.769,VALID,0,VALID,97.2214,VALID,0,VALID,21.5932,VALID,26,VALID,0.800391,
2010-05-12, 01:13:05,VALID,914.755,VALID,0,VALID,97.2367,VALID,0,VALID,21.5932,VALID,26,VALID,0.571094,
2010-05-12, 01:14:05,VALID,914.722,VALID,0,VALID,97.2138,VALID,0,VALID,21.6128,VALID,26,VALID,0.583594,
2010-05-12, 01:15:05,VALID,914.715,VALID,0,VALID,97.2367,VALID,0,VALID,21.6128,VALID,52,VALID,0.849219,
2010-05-12, 01:16:05,VALID,914.657,VALID,0,VALID,97.2367,VALID,0,VALID,21.5932,VALID,60,VALID,0.653906,
2010-05-12, 01:17:05,VALID,914.639,VALID,0,VALID,97.2214,VALID,0,VALID,21.5949,VALID,60,VALID,0.751953,
2010-05-12, 01:18:05,VALID,914.611,VALID,0,VALID,97.229,VALID,0,VALID,21.5737,VALID,60,VALID,0.355859,
2010-05-12, 01:19:05,VALID,914.556,VALID,0,VALID,97.2138,VALID,0,VALID,21.5754,VALID,60,VALID,0.463672,
2010-05-12, 01:20:05,VALID,914.562,VALID,0,VALID,97.2367,VALID,0,VALID,21.5559,VALID,60,VALID,0.322656,
2010-05-12, 01:21:05,VALID,914.533,VALID,0,VALID,97.2443,VALID,0,VALID,21.5542,VALID,60,VALID,0.632031,
2010-05-12, 01:22:05,VALID,914.509,VALID,0,VALID,97.2595,VALID,0,VALID,21.5347,VALID,60,VALID,0.415234,
2010-05-12, 01:23:05,VALID,914.477,VALID,0,VALID,97.2443,VALID,0,VALID,21.5347,VALID,60,VALID,0.755859,
2010-05-12, 01:24:05,VALID,914.474,VALID,0,VALID,97.2443,VALID,0,VALID,21.5152,VALID,60,VALID,0.783984,
2010-05-12, 01:25:05,VALID,914.419,VALID,0,VALID,97.2367,VALID,0,VALID,21.4762,VALID,60,VALID,1.30508,
2010-05-12, 01:26:05,VALID,914.455,VALID,0,VALID,97.2443,VALID,0,VALID,21.4957,VALID,60,VALID,0.605469,
2010-05-12, 01:27:05,VALID,914.428,VALID,0,VALID,97.2443,VALID,0,VALID,21.4957,VALID,60,VALID,0.227734,
2010-05-12, 01:28:05,VALID,914.379,VALID,0,VALID,97.2443,VALID,0,VALID,21.5168,VALID,60,VALID,0.528125,
2010-05-12, 01:29:05,VALID,914.368,VALID,0,VALID,97.2519,VALID,0,VALID,21.4762,VALID,60,VALID,0.357031,
2010-05-12, 01:30:05,VALID,914.371,VALID,0,VALID,97.2367,VALID,0,VALID,21.4762,VALID,60,VALID,0.451562,
2010-05-12, 01:31:05,VALID,914.315,VALID,0,VALID,97.2443,VALID,0,VALID,21.4957,VALID,60,VALID,0.429688,
2010-05-12, 01:32:05,VALID,914.292,VALID,0,VALID,97.2443,VALID,0,VALID,21.4957,VALID,60,VALID,0.552344,
2010-05-12, 01:33:05,VALID,914.303,VALID,0,VALID,97.2519,VALID,0,VALID,21.5152,VALID,60,VALID,0.633594,
2010-05-12, 01:34:05,VALID,914.287,VALID,0,VALID,97.2519,VALID,0,VALID,21.5152,VALID,60,VALID,0.524609,
2010-05-12, 01:35:05,VALID,914.245,VALID,0,VALID,97.2519,VALID,0,VALID,21.5168,VALID,60,VALID,0.371484,
2010-05-12, 01:36:05,VALID,914.238,VALID,0,VALID,97.2595,VALID,0,VALID,21.5152,VALID,60,VALID,0.415625,
2010-05-12, 01:37:05,VALID,914.21,VALID,0,VALID,97.2367,VALID,0.107441,VALID,21.4746,VALID,60,VALID,0.412891,
2010-05-12, 01:38:05,VALID,914.239,VALID,0,VALID,97.2519,VALID,0.107441,VALID,21.4746,VALID,60,VALID,0.232031,
2010-05-12, 01:39:05,VALID,914.209,VALID,0,VALID,97.2443,VALID,0,VALID,21.4957,VALID,60,VALID,0.240234,
2010-05-12, 01:40:05,VALID,914.199,VALID,0,VALID,97.2519,VALID,0.107441,VALID,21.4957,VALID,60,VALID,0.318359,
2010-05-12, 01:41:05,VALID,914.218,VALID,0,VALID,97.2367,VALID,0.107441,VALID,21.455,VALID,60,VALID,0.394531,
2010-05-12, 01:42:05,VALID,914.2,VALID,0,VALID,97.2748,VALID,0,VALID,21.4762,VALID,60,VALID,0.528906,
2010-05-12, 01:43:05,VALID,914.19,VALID,0,VALID,97.2595,VALID,0,VALID,21.5152,VALID,60,VALID,0.954687,
2010-05-12, 01:44:05,VALID,914.19,VALID,0,VALID,97.2443,VALID,0,VALID,21.5347,VALID,60,VALID,0.742969,
2010-05-12, 01:45:05,VALID,914.209,VALID,0,VALID,97.2595,VALID,0.107441,VALID,21.5526,VALID,60,VALID,0.512891,
2010-05-12, 01:46:05,VALID,914.193,VALID,0,VALID,97.2672,VALID,0,VALID,21.5526,VALID,60,VALID,0.598828,
2010-05-12, 01:47:05,VALID,914.192,VALID,0,VALID,97.2519,VALID,0.107441,VALID,21.5542,VALID,60,VALID,0.638672,
2010-05-12, 01:48:05,VALID,914.176,VALID,0,VALID,97.2519,VALID,0.107441,VALID,21.5331,VALID,148,VALID,1.11211,
2010-05-12, 01:49:05,VALID,914.185,VALID,0,VALID,97.2519,VALID,0,VALID,21.4941,VALID,271,VALID,1.16289,
2010-05-12, 01:50:05,VALID,914.155,VALID,0,VALID,97.2443,VALID,0.107441,VALID,21.5152,VALID,263,VALID,1.14883,
2010-05-12, 01:51:05,VALID,914.128,VALID,0,VALID,97.2519,VALID,0.107441,VALID,21.5136,VALID,191,VALID,0.777344,
2010-05-12, 01:52:05,VALID,914.153,VALID,0,VALID,97.2519,VALID,0,VALID,21.4957,VALID,191,VALID,0.687109,
2010-05-12, 01:53:05,VALID,914.147,VALID,0,VALID,97.2672,VALID,0,VALID,21.4957,VALID,191,VALID,0.224219,
2010-05-12, 01:54:05,VALID,914.125,VALID,0,VALID,97.2824,VALID,0,VALID,21.5168,VALID,191,VALID,0.380469,
2010-05-12, 01:55:05,VALID,914.151,VALID,0,VALID,97.2672,VALID,0,VALID,21.4957,VALID,192,VALID,1.07773,
2010-05-12, 01:56:05,VALID,914.158,VALID,0,VALID,97.2595,VALID,0,VALID,21.4973,VALID,263,VALID,0.916016,
2010-05-12, 01:57:05,VALID,914.158,VALID,0,VALID,97.2748,VALID,0,VALID,21.4778,VALID,272,VALID,1.22539,
2010-05-12, 01:58:05,VALID,914.173,VALID,0,VALID,97.2595,VALID,0,VALID,21.4762,VALID,272,VALID,1.12695,
2010-05-12, 01:59:05,VALID,914.161,VALID,0,VALID,97.2824,VALID,0,VALID,21.4762,VALID,272,VALID,0.907812,
2010-05-12, 02:00:05,VALID,914.165,VALID,0,VALID,97.2824,VALID,0,VALID,21.4778,VALID,236,VALID,1.18008,
2010-05-12, 02:01:05,VALID,914.15,VALID,0,VALID,97.2672,VALID,0,VALID,21.4762,VALID,241,VALID,0.367578,
2010-05-12, 02:02:05,VALID,914.154,VALID,0,VALID,97.2672,VALID,0,VALID,21.5168,VALID,241,VALID,0.396875,
2010-05-12, 02:03:05,VALID,914.167,VALID,0,VALID,97.2748,VALID,0,VALID,21.4957,VALID,241,VALID,0.594531,
2010-05-12, 02:04:05,VALID,914.161,VALID,0,VALID,97.2672,VALID,0,VALID,21.4957,VALID,241,VALID,0.376953,
2010-05-12, 02:05:05,VALID,914.19,VALID,0,VALID,97.2824,VALID,0,VALID,21.5559,VALID,241,VALID,0.654688,
2010-05-12, 02:06:05,VALID,914.213,VALID,0,VALID,97.2672,VALID,0,VALID,21.5152,VALID,241,VALID,0.423047,
2010-05-12, 02:07:05,VALID,914.203,VALID,0,VALID,97.2672,VALID,0,VALID,21.5754,VALID,241,VALID,0.411719,
2010-05-12, 02:08:05,VALID,914.232,VALID,0,VALID,97.2824,VALID,0,VALID,21.5949,VALID,241,VALID,0.0148437,
2010-05-12, 02:09:05,VALID,914.233,VALID,0,VALID,97.2748,VALID,0,VALID,21.6339,VALID,241,VALID,0.373828,
2010-05-12, 02:10:05,VALID,914.226,VALID,0,VALID,97.2824,VALID,0,VALID,21.5949,VALID,241,VALID,0,
2010-05-12, 02:11:05,VALID,914.227,VALID,0,VALID,97.29,VALID,0,VALID,21.5949,VALID,241,VALID,0.00195313,
2010-05-12, 02:12:05,VALID,914.222,VALID,0,VALID,97.2977,VALID,0,VALID,21.6144,VALID,241,VALID,0,
2010-05-12, 02:13:05,VALID,914.222,VALID,0,VALID,97.29,VALID,0,VALID,21.5932,VALID,241,VALID,0,
2010-05-12, 02:14:05,VALID,914.225,VALID,0,VALID,97.29,VALID,0,VALID,21.6144,VALID,241,VALID,0,
2010-05-12, 02:15:05,VALID,914.225,VALID,0,VALID,97.29,VALID,0,VALID,21.6339,VALID,241,VALID,0.157031,
2010-05-12, 02:16:05,VALID,914.217,VALID,0,VALID,97.2824,VALID,0,VALID,21.6323,VALID,241,VALID,0.0675781,
2010-05-12, 02:17:05,VALID,914.202,VALID,0,VALID,97.3053,VALID,0,VALID,21.6534,VALID,241,VALID,0,
2010-05-12, 02:18:05,VALID,914.201,VALID,0,VALID,97.2824,VALID,0,VALID,21.6339,VALID,241,VALID,0.197266,
2010-05-12, 02:19:05,VALID,914.213,VALID,0,VALID,97.2824,VALID,0,VALID,21.6128,VALID,241,VALID,0,
2010-05-12, 02:20:05,VALID,914.209,VALID,0,VALID,97.29,VALID,0,VALID,21.5932,VALID,241,VALID,0.361328,
2010-05-12, 02:21:05,VALID,914.195,VALID,0,VALID,97.2824,VALID,0,VALID,21.5932,VALID,241,VALID,0,
2010-05-12, 02:22:05,VALID,914.179,VALID,0,VALID,97.2672,VALID,0,VALID,21.6144,VALID,241,VALID,0.185547,
2010-05-12, 02:23:05,VALID,914.164,VALID,0,VALID,97.2748,VALID,0,VALID,21.6128,VALID,241,VALID,0.351563,
2010-05-12, 02:24:05,VALID,914.149,VALID,0,VALID,97.2824,VALID,0,VALID,21.5949,VALID,241,VALID,0.330078,
2010-05-12, 02:25:05,VALID,914.14,VALID,0,VALID,97.2748,VALID,0,VALID,21.5932,VALID,241,VALID,0.221875,
2010-05-12, 02:26:05,VALID,914.153,VALID,0,VALID,97.2672,VALID,0,VALID,21.5932,VALID,241,VALID,0.323828,
2010-05-12, 02:27:05,VALID,914.118,VALID,0,VALID,97.2672,VALID,0,VALID,21.6534,VALID,241,VALID,0.0792969,
2010-05-12, 02:28:05,VALID,914.126,VALID,0,VALID,97.2672,VALID,0,VALID,21.6323,VALID,241,VALID,0.353125,
2010-05-12, 02:29:05,VALID,914.115,VALID,0,VALID,97.2672,VALID,0,VALID,21.6924,VALID,241,VALID,0.0957031,
2010-05-12, 02:30:05,VALID,914.107,VALID,0.2,VALID,97.2672,VALID,0,VALID,21.712,VALID,241,VALID,0.305469,
2010-05-12, 02:31:05,VALID,914.121,VALID,0,VALID,97.2824,VALID,0,VALID,21.6339,VALID,241,VALID,0.465625,
2010-05-12, 02:32:05,VALID,914.069,VALID,0,VALID,97.2824,VALID,0,VALID,21.5949,VALID,241,VALID,0.320703,
2010-05-12, 02:33:05,VALID,914.07,VALID,0,VALID,97.2977,VALID,0,VALID,21.5542,VALID,241,VALID,0.204297,
2010-05-12, 02:34:05,VALID,914.073,VALID,0,VALID,97.2748,VALID,0,VALID,21.5559,VALID,241,VALID,0,
2010-05-12, 02:35:05,VALID,914.067,VALID,0,VALID,97.29,VALID,0,VALID,21.5347,VALID,241,VALID,0.3,
2010-05-12, 02:36:05,VALID,914.055,VALID,0,VALID,97.2824,VALID,0,VALID,21.5932,VALID,241,VALID,0.165234,
2010-05-12, 02:37:05,VALID,914.041,VALID,0,VALID,97.2672,VALID,0,VALID,21.6128,VALID,241,VALID,0,
2010-05-12, 02:38:05,VALID,914.056,VALID,0,VALID,97.2824,VALID,0,VALID,21.6323,VALID,241,VALID,0,
2010-05-12, 02:39:04,VALID,914.057,VALID,0,VALID,97.2977,VALID,0,VALID,21.6534,VALID,241,VALID,0.0882813,
2010-05-12, 02:40:04,VALID,914.07,VALID,0,VALID,97.2824,VALID,0,VALID,21.6534,VALID,241,VALID,0.00117188,
2010-05-12, 02:41:04,VALID,914.095,VALID,0,VALID,97.2824,VALID,0,VALID,21.6128,VALID,241,VALID,0.131641,
2010-05-12, 02:42:04,VALID,914.085,VALID,0,VALID,97.3053,VALID,0,VALID,21.6128,VALID,241,VALID,0.227344,
2010-05-12, 02:43:04,VALID,914.094,VALID,0,VALID,97.2977,VALID,0,VALID,21.5754,VALID,241,VALID,0.241406,
2010-05-12, 02:44:04,VALID,914.096,VALID,0,VALID,97.2748,VALID,0,VALID,21.5737,VALID,241,VALID,0.351172,
2010-05-12, 02:45:04,VALID,914.095,VALID,0,VALID,97.3053,VALID,0,VALID,21.5949,VALID,241,VALID,0.53125,
2010-05-12, 02:46:04,VALID,914.095,VALID,0,VALID,97.3053,VALID,0,VALID,21.5737,VALID,241,VALID,0.376563,
2010-05-12, 02:47:04,VALID,914.113,VALID,0,VALID,97.29,VALID,0,VALID,21.5949,VALID,241,VALID,0.435937,
2010-05-12, 02:48:04,VALID,914.096,VALID,0,VALID,97.2824,VALID,0,VALID,21.5347,VALID,241,VALID,0.415234,
2010-05-12, 02:49:04,VALID,914.079,VALID,0,VALID,97.2824,VALID,0,VALID,21.5559,VALID,241,VALID,0.218359,
2010-05-12, 02:50:04,VALID,914.065,VALID,0,VALID,97.2824,VALID,0,VALID,21.5559,VALID,241,VALID,0.176953,
2010-05-12, 02:51:04,VALID,914.053,VALID,0,VALID,97.2977,VALID,0,VALID,21.5347,VALID,241,VALID,0.153125,
2010-05-12, 02:52:04,VALID,914.047,VALID,0,VALID,97.3129,VALID,0,VALID,21.5559,VALID,241,VALID,0,
2010-05-12, 02:53:04,VALID,914.038,VALID,0,VALID,97.2977,VALID,0,VALID,21.5152,VALID,241,VALID,0,
2010-05-12, 02:54:04,VALID,914.002,VALID,0,VALID,97.29,VALID,0,VALID,21.5754,VALID,241,VALID,0,
2010-05-12, 02:55:04,VALID,913.975,VALID,0,VALID,97.3205,VALID,0,VALID,21.5347,VALID,241,VALID,0,
2010-05-12, 02:56:04,VALID,913.961,VALID,0,VALID,97.2977,VALID,0,VALID,21.5737,VALID,241,VALID,0,
2010-05-12, 02:57:04,VALID,913.955,VALID,0,VALID,97.3053,VALID,0,VALID,21.5932,VALID,241,VALID,0,
2010-05-12, 02:58:04,VALID,913.936,VALID,0,VALID,97.3053,VALID,0,VALID,21.6128,VALID,241,VALID,0,
2010-05-12, 02:59:04,VALID,913.907,VALID,0,VALID,97.3053,VALID,0,VALID,21.6729,VALID,241,VALID,0.0644531,
2010-05-12, 03:00:04,VALID,913.909,VALID,0,VALID,97.29,VALID,0,VALID,21.6534,VALID,241,VALID,0.186719,
2010-05-12, 03:01:04,VALID,913.885,VALID,0,VALID,97.29,VALID,0,VALID,21.6323,VALID,241,VALID,0.271484,
2010-05-12, 03:02:04,VALID,913.89,VALID,0,VALID,97.2977,VALID,0,VALID,21.6339,VALID,241,VALID,0.421875,
2010-05-12, 03:03:04,VALID,913.898,VALID,0,VALID,97.3053,VALID,0,VALID,21.6144,VALID,241,VALID,0.969141,
2010-05-12, 03:04:04,VALID,913.87,VALID,0,VALID,97.29,VALID,0,VALID,21.5737,VALID,241,VALID,0.96875,
2010-05-12, 03:05:04,VALID,913.874,VALID,0,VALID,97.2824,VALID,0,VALID,21.5949,VALID,242,VALID,1.01875,
2010-05-12, 03:06:04,VALID,913.889,VALID,0,VALID,97.2977,VALID,0,VALID,21.5932,VALID,242,VALID,0.967578,
2010-05-12, 03:07:04,VALID,913.886,VALID,0,VALID,97.29,VALID,0,VALID,21.5737,VALID,242,VALID,0.784766,
2010-05-12, 03:08:04,VALID,913.891,VALID,0,VALID,97.29,VALID,0,VALID,21.6339,VALID,242,VALID,0.839063,
2010-05-12, 03:09:04,VALID,913.878,VALID,0,VALID,97.29,VALID,0,VALID,21.5932,VALID,242,VALID,0.864062,
2010-05-12, 03:10:04,VALID,913.873,VALID,0,VALID,97.3129,VALID,0,VALID,21.5754,VALID,64,VALID,1.22656,
2010-05-12, 03:11:04,VALID,913.867,VALID,0,VALID,97.2977,VALID,0,VALID,21.5542,VALID,64,VALID,1.01211,
2010-05-12, 03:12:04,VALID,913.877,VALID,0,VALID,97.3053,VALID,0,VALID,21.5754,VALID,64,VALID,0.910547,
2010-05-12, 03:13:04,VALID,913.852,VALID,0,VALID,97.3129,VALID,0,VALID,21.5754,VALID,64,VALID,0.849609,
2010-05-12, 03:14:04,VALID,913.865,VALID,0,VALID,97.2977,VALID,0,VALID,21.5932,VALID,64,VALID,0.683984,
2010-05-12, 03:15:04,VALID,913.862,VALID,0,VALID,97.3053,VALID,0,VALID,21.5949,VALID,64,VALID,0.533594,
2010-05-12, 03:16:04,VALID,913.846,VALID,0,VALID,97.2977,VALID,0,VALID,21.6144,VALID,64,VALID,0.428906,
2010-05-12, 03:17:04,VALID,913.823,VALID,0,VALID,97.3053,VALID,0,VALID,21.6144,VALID,64,VALID,0.409375,
2010-05-12, 03:18:04,VALID,913.845,VALID,0,VALID,97.2977,VALID,0,VALID,21.6729,VALID,64,VALID,0.397266,
2010-05-12, 03:19:04,VALID,913.812,VALID,0,VALID,97.3053,VALID,0,VALID,21.6144,VALID,64,VALID,0.209766,
2010-05-12, 03:20:04,VALID,913.816,VALID,0,VALID,97.3129,VALID,0,VALID,21.6144,VALID,64,VALID,0,
2010-05-12, 03:21:04,VALID,913.821,VALID,0,VALID,97.2977,VALID,0,VALID,21.6534,VALID,64,VALID,0,
2010-05-12, 03:22:04,VALID,913.821,VALID,0,VALID,97.2977,VALID,0,VALID,21.6534,VALID,64,VALID,0,
2010-05-12, 03:23:04,VALID,913.803,VALID,0,VALID,97.2977,VALID,0,VALID,21.5932,VALID,64,VALID,0.371094,
2010-05-12, 03:24:04,VALID,913.807,VALID,0,VALID,97.3053,VALID,0,VALID,21.5542,VALID,64,VALID,0.272266,
2010-05-12, 03:25:04,VALID,913.795,VALID,0,VALID,97.3053,VALID,0,VALID,21.5949,VALID,64,VALID,0.0339844,
2010-05-12, 03:26:04,VALID,913.804,VALID,0,VALID,97.2977,VALID,0,VALID,21.5932,VALID,64,VALID,0.388281,
2010-05-12, 03:27:04,VALID,913.809,VALID,0,VALID,97.3053,VALID,0,VALID,21.5932,VALID,64,VALID,0.244141,
2010-05-12, 03:28:04,VALID,913.798,VALID,0,VALID,97.3205,VALID,0,VALID,21.5949,VALID,64,VALID,0.151172,
2010-05-12, 03:29:04,VALID,913.806,VALID,0,VALID,97.3129,VALID,0,VALID,21.5949,VALID,64,VALID,0.34375,
2010-05-12, 03:30:04,VALID,913.776,VALID,0,VALID,97.3281,VALID,0,VALID,21.6339,VALID,64,VALID,0.350781,
2010-05-12, 03:31:04,VALID,913.811,VALID,0,VALID,97.2977,VALID,0,VALID,21.5949,VALID,64,VALID,0.503125,
2010-05-12, 03:32:04,VALID,913.8,VALID,0,VALID,97.3281,VALID,0,VALID,21.5754,VALID,64,VALID,0.262891,
2010-05-12, 03:33:04,VALID,913.838,VALID,0,VALID,97.3053,VALID,0,VALID,21.6144,VALID,64,VALID,0.250391,
2010-05-12, 03:34:04,VALID,913.817,VALID,0,VALID,97.3129,VALID,0,VALID,21.5932,VALID,64,VALID,0.466016,
2010-05-12, 03:35:04,VALID,913.839,VALID,0,VALID,97.3129,VALID,0,VALID,21.6518,VALID,64,VALID,0.341797,
2010-05-12, 03:36:04,VALID,913.848,VALID,0,VALID,97.3129,VALID,0,VALID,21.6729,VALID,64,VALID,0.41875,
2010-05-12, 03:37:04,VALID,913.86,VALID,0,VALID,97.3205,VALID,0,VALID,21.6729,VALID,64,VALID,0.526172,
2010-05-12, 03:38:04,VALID,913.837,VALID,0,VALID,97.3358,VALID,0,VALID,21.712,VALID,64,VALID,0.528125,
2010-05-12, 03:39:04,VALID,913.794,VALID,0,VALID,97.3205,VALID,0,VALID,21.6713,VALID,64,VALID,0.489062,
2010-05-12, 03:40:04,VALID,913.794,VALID,0,VALID,97.3205,VALID,0,VALID,21.6534,VALID,64,VALID,0.410156,
2010-05-12, 03:41:04,VALID,913.776,VALID,0,VALID,97.3205,VALID,0,VALID,21.6518,VALID,64,VALID,0.440234,
2010-05-12, 03:42:04,VALID,913.782,VALID,0,VALID,97.3281,VALID,0,VALID,21.6339,VALID,64,VALID,0.673828,
2010-05-12, 03:43:04,VALID,913.755,VALID,0,VALID,97.3281,VALID,0,VALID,21.6144,VALID,64,VALID,0.489844,
2010-05-12, 03:44:04,VALID,913.771,VALID,0,VALID,97.3205,VALID,0,VALID,21.5949,VALID,64,VALID,0.400391,
2010-05-12, 03:45:04,VALID,913.729,VALID,0,VALID,97.3129,VALID,0,VALID,21.5754,VALID,64,VALID,0.201562,
2010-05-12, 03:46:04,VALID,913.722,VALID,0,VALID,97.3281,VALID,0,VALID,21.5949,VALID,64,VALID,0.187891,